period_start,C,m1,H,J0,J1,J2,J3,J4,J5,JA,JB,JC,JD,JJ,JK,JN,#
2015-08-04 00:03:53,0.02,0.42,0.00,24.55,28.20,30.57,4.74,26.11,1013.69,2035.99,3225.01,3146.42,3418.02,350.10,344.98,28.71,0000 0000 0000 0000 000000
2015-08-04 00:08:54,-0.02,0.42,0.00,24.55,28.20,30.57,4.72,25.81,1013.69,2035.99,3225.01,3146.62,3418.02,349.51,344.53,28.74,0000 0000 0000 0000 000000
2015-08-04 00:13:55,0.01,0.42,0.00,24.53,28.20,30.58,4.76,25.92,1013.69,2035.99,3225.00,3146.52,3418.01,350.36,345.28,28.77,0000 0000 0000 0000 000000
2015-08-04 00:18:57,-0.01,0.42,0.00,24.53,28.20,30.56,4.73,25.82,1013.69,2036.00,3225.00,3146.77,3418.03,350.25,344.94,28.79,0000 0000 0000 0000 000000
2015-08-04 00:23:57,0.00,0.42,0.00,24.52,28.20,30.54,4.78,25.83,1013.69,2036.00,3225.00,3146.77,3418.01,349.74,344.89,28.82,0000 0000 0000 0000 000000
2015-08-04 00:28:59,0.02,0.42,0.00,24.52,28.20,30.56,4.74,25.82,1013.67,2036.00,3224.99,3146.40,3418.00,349.73,344.43,28.85,0000 0000 0000 0000 000000
2015-08-04 00:34:00,-0.00,0.42,0.00,24.52,28.20,30.55,4.71,25.80,1013.62,2036.00,3224.97,3146.38,3418.00,350.14,345.06,28.88,0000 0000 0000 0000 000000
2015-08-04 00:39:02,0.01,0.42,0.00,24.54,28.19,30.55,4.64,25.87,1013.57,2036.00,3224.95,3146.18,3417.99,349.46,344.28,28.91,0000 0000 0000 0000 000000
2015-08-04 00:44:03,-0.00,0.42,0.00,24.53,28.19,30.54,4.67,25.93,1013.49,2036.00,3224.87,3146.22,3417.98,349.53,344.32,28.94,0000 0000 0000 0000 000000
2015-08-04 00:49:04,0.00,0.42,0.00,24.55,28.18,30.54,4.73,25.87,1013.39,2036.00,3224.82,3146.27,3417.98,350.14,344.94,28.97,0000 0000 0000 0000 000000
2015-08-04 00:54:06,0.00,0.42,0.00,24.54,28.18,30.54,4.71,25.88,1013.33,2036.01,3224.59,3146.30,3417.97,349.76,344.47,29.00,0000 0000 0000 0000 000000
2015-08-04 00:59:07,0.02,0.42,0.00,24.52,28.17,30.54,4.77,25.93,1013.37,2036.01,3224.18,3146.23,3417.92,349.94,344.92,29.03,0000 0000 0000 0000 000000
2015-08-04 01:04:09,0.02,0.42,0.00,24.52,28.17,30.52,4.72,26.11,1013.29,2036.00,3224.02,3146.10,3417.54,349.70,344.49,29.06,0000 0000 0000 0000 000000
2015-08-04 01:09:10,0.00,0.42,0.00,24.52,28.17,30.52,4.70,25.83,1013.26,2036.01,3224.01,3146.10,3417.35,349.90,344.59,29.09,0000 0000 0000 0000 000000
2015-08-04 01:14:11,0.01,0.42,0.00,24.50,28.17,30.54,4.67,25.80,1013.30,2036.03,3224.01,3146.14,3417.25,349.59,344.40,29.12,0000 0000 0000 0000 000000
2015-08-04 01:19:12,-0.01,0.42,0.00,24.50,28.17,30.51,4.71,25.88,1013.27,2036.02,3224.00,3146.21,3417.29,350.11,344.73,29.15,0000 0000 0000 0000 000000
2015-08-04 01:24:14,0.01,0.42,0.00,24.52,28.17,30.52,4.68,25.85,1013.23,2036.02,3223.99,3146.06,3417.04,349.51,344.28,29.18,0000 0000 0000 0000 000000
2015-08-04 01:29:15,-0.00,0.42,0.00,24.52,28.17,30.51,4.72,25.82,1013.23,2036.01,3223.98,3146.06,3417.02,349.85,344.67,29.20,0000 0000 0000 0000 000000
2015-08-04 01:34:17,0.01,0.42,0.00,24.52,28.17,30.52,4.75,25.85,1013.23,2036.02,3223.97,3146.04,3417.01,350.05,344.93,29.23,0000 0000 0000 0000 000000
2015-08-04 01:39:18,0.01,0.42,0.00,24.51,28.17,30.53,4.72,25.94,1013.25,2036.02,3223.82,3146.02,3417.00,350.15,344.82,29.26,0000 0000 0000 0000 000000
2015-08-04 01:44:19,0.00,0.42,0.00,24.52,28.17,30.51,4.61,25.89,1013.27,2036.02,3223.57,3146.02,3417.00,349.53,344.32,29.29,0000 0000 0000 0000 000000
2015-08-04 01:49:20,0.01,0.42,0.00,24.52,28.17,30.51,4.70,25.93,1013.34,2036.03,3223.26,3146.03,3417.00,350.05,344.86,29.32,0000 0000 0000 0000 000000
2015-08-04 01:54:22,0.00,0.42,0.00,24.51,28.17,30.51,4.71,25.93,1013.32,2036.03,3223.10,3146.03,3416.99,349.97,344.80,29.35,0000 0000 0000 0000 000000
2015-08-04 01:59:23,0.01,0.42,0.00,24.52,28.16,30.52,4.77,25.93,1013.34,2036.05,3223.01,3146.01,3416.98,350.06,344.75,29.38,0000 0000 0000 0000 000000
2015-08-04 02:04:24,0.00,0.42,0.00,24.52,28.15,30.51,4.72,26.12,1013.31,2036.04,3223.00,3146.01,3416.90,350.04,344.75,29.41,0000 0000 0000 0000 000000
2015-08-04 02:09:26,-0.00,0.42,0.00,24.52,28.15,30.52,4.73,25.88,1013.29,2036.04,3222.99,3146.00,3416.90,349.99,344.78,29.44,0000 0000 0000 0000 000000
2015-08-04 02:14:27,0.00,0.42,0.00,24.52,28.15,30.50,4.79,25.97,1013.27,2036.03,3222.99,3146.00,3416.72,350.15,344.55,29.47,0000 0000 0000 0000 000000
2015-08-04 02:19:28,0.02,0.42,0.00,24.52,28.15,30.50,4.66,25.86,1013.38,2036.07,3222.95,3146.00,3416.17,349.92,344.55,29.50,0000 0000 0000 0000 000000
2015-08-04 02:24:29,0.01,0.42,0.00,24.52,28.15,30.50,4.71,25.96,1013.35,2036.10,3222.86,3146.00,3416.04,350.02,344.81,29.53,0000 0000 0000 0000 000000
2015-08-04 02:29:31,0.01,0.42,0.00,24.51,28.15,30.49,4.72,25.87,1013.31,2036.12,3222.65,3146.00,3416.03,349.89,344.80,29.56,0000 0000 0000 0000 000000
2015-08-04 02:34:32,-0.00,0.42,0.00,24.52,28.15,30.49,4.76,25.98,1013.32,2036.07,3222.29,3146.00,3416.01,350.27,344.94,29.59,0000 0000 0000 0000 000000
2015-08-04 02:39:34,0.02,0.42,0.00,24.52,28.15,30.49,4.67,25.85,1013.40,2036.13,3222.13,3146.00,3416.00,349.23,344.06,29.62,0000 0000 0000 0000 000000
2015-08-04 02:44:35,0.02,0.42,0.00,24.52,28.15,30.50,4.64,25.93,1013.54,2036.24,3222.04,3146.00,3416.00,349.32,344.24,29.64,0000 0000 0000 0000 000000
2015-08-04 02:49:36,-0.02,0.42,0.00,24.52,28.15,30.49,4.69,25.85,1013.65,2036.24,3222.00,3146.00,3416.00,349.71,344.66,29.67,0000 0000 0000 0000 000000
2015-08-04 02:54:37,0.02,0.42,0.00,24.52,28.15,30.49,4.70,25.93,1013.64,2036.26,3222.00,3146.00,3415.99,349.79,344.69,29.70,0000 0000 0000 0000 000000
2015-08-04 02:59:39,-0.00,0.42,0.00,24.52,28.15,30.48,4.70,25.87,1013.66,2036.29,3222.00,3146.00,3415.99,349.89,344.47,29.73,0000 0000 0000 0000 000000
2015-08-04 03:04:40,-0.01,0.42,0.00,24.52,28.15,30.50,4.67,26.06,1013.59,2036.17,3221.98,3146.00,3415.90,349.72,344.50,29.76,0000 0000 0000 0000 000000
2015-08-04 03:09:42,0.03,0.42,0.00,24.52,28.15,30.49,4.78,25.99,1013.60,2036.29,3221.98,3145.99,3415.93,350.10,344.82,29.79,0000 0000 0000 0000 000000
2015-08-04 03:14:43,0.01,0.43,0.00,24.50,28.15,30.49,4.74,26.02,1013.63,2036.45,3221.88,3145.99,3415.86,350.06,344.86,29.82,0000 0000 0000 0000 000000
2015-08-04 03:19:44,0.02,0.43,0.00,24.52,28.15,30.48,4.71,25.98,1013.66,2036.40,3221.36,3145.99,3415.35,349.50,344.62,29.85,0000 0000 0000 0000 000000
2015-08-04 03:24:45,0.03,0.43,0.00,24.52,28.15,30.50,4.73,25.88,1013.69,2036.54,3221.25,3145.99,3415.31,349.76,344.74,29.88,0000 0000 0000 0000 000000
2015-08-04 03:29:46,-0.02,0.43,0.00,24.54,28.15,30.49,4.73,25.84,1013.69,2036.39,3221.07,3145.99,3415.07,350.23,345.19,29.91,0000 0000 0000 0000 000000
2015-08-04 03:34:47,-0.03,0.43,0.00,24.54,28.15,30.49,4.76,25.96,1013.69,2036.31,3221.01,3145.98,3415.01,349.88,344.42,29.94,0000 0000 0000 0000 000000
2015-08-04 03:39:49,0.01,0.43,0.00,24.52,28.15,30.49,4.68,25.82,1013.69,2036.27,3221.00,3145.96,3415.00,349.77,344.78,29.97,0000 0000 0000 0000 000000
2015-08-04 03:44:50,0.01,0.43,0.00,24.53,28.15,30.49,4.69,25.80,1013.70,2036.23,3220.99,3145.91,3415.00,349.68,344.52,30.00,0000 0000 0000 0000 000000
2015-08-04 03:49:52,-0.01,0.43,0.00,24.54,28.15,30.48,4.69,25.82,1013.70,2036.14,3220.99,3145.88,3414.99,349.82,344.75,30.03,0000 0000 0000 0000 000000
2015-08-04 03:54:53,0.01,0.43,0.00,24.54,28.15,30.48,4.72,25.97,1013.70,2036.16,3220.92,3145.89,3414.98,349.74,344.71,30.05,0000 0000 0000 0000 000000
2015-08-04 03:59:54,0.02,0.43,0.00,24.54,28.15,30.48,4.66,25.82,1013.71,2036.24,3220.83,3145.92,3414.93,349.63,344.66,30.08,0000 0000 0000 0000 000000
2015-08-04 04:04:55,0.01,0.43,0.00,24.52,28.15,30.48,4.74,26.05,1013.71,2036.18,3220.22,3145.74,3414.68,350.37,344.99,30.11,0000 0000 0000 0000 000000
2015-08-04 04:09:56,0.01,0.43,0.00,24.53,28.15,30.48,4.71,25.92,1013.70,2036.28,3220.13,3145.87,3414.69,350.03,345.10,30.14,0000 0000 0000 0000 000000
2015-08-04 04:14:57,0.02,0.43,0.00,24.52,28.15,30.49,4.67,25.96,1013.71,2036.37,3220.10,3145.92,3414.64,349.67,344.59,30.17,0000 0000 0000 0000 000000
2015-08-04 04:19:59,0.04,0.43,0.00,24.51,28.15,30.47,4.74,25.89,1013.72,2036.70,3220.15,3145.95,3414.69,349.89,344.65,30.20,0000 0000 0000 0000 000000
2015-08-04 04:25:00,-0.00,0.43,0.00,24.51,28.15,30.49,4.76,25.88,1013.75,2036.51,3220.03,3145.89,3414.20,350.32,345.23,30.23,0000 0000 0000 0000 000000
2015-08-04 04:30:01,0.01,0.43,0.00,24.51,28.15,30.48,4.69,25.86,1013.76,2036.47,3220.00,3145.86,3414.04,350.21,345.23,30.26,0000 0000 0000 0000 000000
2015-08-04 04:35:02,-0.01,0.43,0.00,24.52,28.15,30.49,4.75,25.88,1013.75,2036.32,3219.99,3145.53,3414.00,349.81,344.55,30.29,0000 0000 0000 0000 000000
2015-08-04 04:40:03,0.00,0.43,0.00,24.52,28.14,30.49,4.62,25.83,1013.70,2036.47,3219.98,3145.68,3414.01,349.69,344.62,30.32,0000 0000 0000 0000 000000
2015-08-04 04:45:04,-0.03,0.43,0.00,24.51,28.14,30.47,4.75,25.94,1013.71,2036.20,3219.90,3145.32,3414.00,350.00,345.19,30.35,0000 0000 0000 0000 000000
2015-08-04 04:50:06,0.05,0.43,0.00,24.51,28.14,30.46,4.75,25.98,1013.70,2036.41,3219.95,3145.49,3413.99,349.91,344.71,30.38,0000 0000 0000 0000 000000
2015-08-04 04:55:07,-0.02,0.43,0.00,24.52,28.13,30.47,4.79,25.96,1013.70,2036.25,3219.65,3145.33,3413.98,350.27,345.38,30.41,0000 0000 0000 0000 000000
2015-08-04 05:00:08,0.01,0.43,0.00,24.52,28.13,30.49,4.69,25.97,1013.72,2036.24,3219.17,3145.17,3413.95,350.37,345.29,30.44,0000 0000 0000 0000 000000
2015-08-04 05:05:09,-0.00,0.43,0.00,24.52,28.13,30.48,4.68,26.23,1013.72,2036.15,3219.02,3145.12,3413.71,349.49,344.43,30.46,0000 0000 0000 0000 000000
2015-08-04 05:10:11,0.01,0.43,0.00,24.50,28.12,30.48,4.70,26.02,1013.83,2036.20,3219.01,3145.12,3413.67,349.48,344.53,30.49,0000 0000 0000 0000 000000
2015-08-04 05:15:12,0.02,0.43,0.00,24.50,28.12,30.48,4.71,25.88,1014.00,2036.31,3219.00,3145.13,3413.49,349.47,344.79,30.52,0000 0000 0000 0000 000000
2015-08-04 05:20:14,0.03,0.43,0.00,24.50,28.12,30.47,4.74,25.98,1013.98,2036.55,3219.00,3145.40,3413.45,349.81,344.95,30.55,0000 0000 0000 0000 000000
2015-08-04 05:25:15,0.00,0.43,0.00,24.49,28.12,30.47,4.74,26.06,1013.95,2036.59,3219.00,3145.47,3413.28,349.91,344.88,30.58,0000 0000 0000 0000 000000
2015-08-04 05:30:16,0.01,0.43,0.00,24.48,28.12,30.46,4.77,26.10,1014.04,2036.62,3219.00,3145.25,3413.08,350.21,345.43,30.61,0000 0000 0000 0000 000000
2015-08-04 05:35:18,-0.01,0.43,0.00,24.49,28.12,30.47,4.79,25.98,1014.05,2036.45,3218.96,3145.08,3413.01,350.43,345.42,30.64,0000 0000 0000 0000 000000
2015-08-04 05:40:19,-0.01,0.43,0.00,24.47,28.12,30.49,4.78,26.01,1013.97,2036.41,3218.92,3145.09,3413.00,350.51,345.48,30.67,0000 0000 0000 0000 000000
2015-08-04 05:45:20,0.04,0.43,0.00,24.49,28.12,30.47,4.74,25.90,1013.96,2036.70,3218.90,3145.18,3413.00,350.43,345.47,30.70,0000 0000 0000 0000 000000
2015-08-04 05:50:21,-0.00,0.43,0.00,24.49,28.12,30.46,4.72,25.95,1014.07,2036.59,3218.40,3145.10,3413.00,349.81,344.95,30.73,0000 0000 0000 0000 000000
2015-08-04 05:55:22,0.02,0.43,0.00,24.48,28.12,30.47,4.78,25.95,1014.15,2036.64,3218.20,3145.11,3413.00,350.45,345.51,30.76,0000 0000 0000 0000 000000
2015-08-04 06:00:24,0.01,0.43,0.00,24.43,28.11,30.52,4.72,25.98,1014.17,2036.81,3218.20,3145.28,3413.00,349.52,344.82,30.79,0000 0000 0000 0000 000000
2015-08-04 06:05:25,-0.02,0.43,0.00,24.35,28.10,30.66,4.78,26.05,1014.17,2036.70,3218.01,3145.22,3412.98,350.63,345.98,30.82,0000 0000 0000 0000 000000
2015-08-04 06:10:26,0.02,0.43,0.00,24.25,28.10,30.76,4.76,26.00,1014.17,2036.88,3218.03,3145.52,3412.99,349.68,345.08,30.85,0000 0000 0000 0000 000000
2015-08-04 06:15:27,0.00,0.43,0.00,24.14,28.08,30.82,4.72,25.98,1014.17,2036.94,3218.00,3145.67,3412.99,349.51,345.08,30.87,0000 0000 0000 0000 000000
2015-08-04 06:20:28,-0.01,0.43,0.00,24.04,28.06,30.77,4.74,26.00,1014.17,2036.97,3218.00,3145.92,3412.99,349.87,345.41,30.90,0000 0000 0000 0000 000000
2015-08-04 06:25:29,0.00,0.43,0.00,23.94,28.05,30.75,4.75,26.00,1014.16,2036.99,3218.01,3145.97,3413.00,350.10,345.97,30.93,0000 0000 0000 0000 000000
2015-08-04 06:30:30,-0.00,0.43,0.00,23.87,28.02,30.69,4.75,25.98,1014.16,2036.99,3218.01,3145.98,3413.00,350.02,345.85,30.96,0000 0000 0000 0000 000000
2015-08-04 06:35:32,0.00,0.43,0.00,23.87,27.99,30.62,4.79,26.08,1014.16,2036.99,3218.02,3145.99,3413.01,350.48,346.29,30.99,0000 0000 0000 0000 000000
2015-08-04 06:40:33,0.00,0.43,0.00,23.90,27.96,30.56,4.73,26.07,1014.17,2037.00,3218.04,3146.01,3413.11,349.83,345.63,31.02,0000 0000 0000 0000 000000
2015-08-04 06:45:34,-0.02,0.43,0.00,23.93,27.94,30.51,4.78,25.96,1014.15,2037.02,3218.17,3146.16,3413.51,349.70,345.40,31.05,0000 0000 0000 0000 000000
2015-08-04 06:50:35,-0.01,0.43,0.00,23.96,27.91,30.48,4.70,25.98,1014.12,2037.08,3218.18,3146.52,3413.75,349.59,345.21,31.08,0000 0000 0000 0000 000000
2015-08-04 06:55:36,0.00,0.43,0.00,23.99,27.88,30.43,4.75,26.07,1014.06,2037.17,3218.16,3146.71,3413.71,349.57,345.26,31.11,0000 0000 0000 0000 000000
2015-08-04 07:00:37,0.05,0.43,0.00,24.02,27.86,30.39,4.73,26.07,1014.08,2037.38,3218.10,3146.92,3413.82,349.49,345.26,31.14,0000 0000 0000 0000 000000
2015-08-04 07:05:39,0.03,0.43,0.00,24.04,27.84,30.34,4.75,26.20,1014.07,2037.62,3218.01,3146.92,3413.56,350.20,345.81,31.17,0000 0000 0000 0000 000000
2015-08-04 07:10:40,0.03,0.44,0.00,24.07,27.82,30.33,4.77,26.02,1014.02,2037.93,3218.05,3146.98,3413.94,350.18,345.77,31.20,0000 0000 0000 0000 000000
2015-08-04 07:15:41,0.01,0.44,0.00,24.09,27.80,30.29,4.77,25.99,1013.96,2037.96,3218.05,3146.99,3413.92,350.54,346.17,31.23,0000 0000 0000 0000 000000
2015-08-04 07:20:42,0.00,0.44,0.00,24.10,27.79,30.22,4.72,26.00,1014.00,2037.99,3218.03,3146.99,3413.94,349.84,345.63,31.26,0000 0000 0000 0000 000000
2015-08-04 07:25:44,0.01,0.44,0.00,24.11,27.77,30.19,4.74,26.07,1013.94,2037.98,3218.00,3146.99,3413.66,350.16,345.52,31.28,0000 0000 0000 0000 000000
2015-08-04 07:30:45,0.00,0.44,0.00,24.11,27.77,30.18,4.71,25.99,1013.90,2037.99,3218.00,3146.99,3413.56,350.30,345.75,31.31,0000 0000 0000 0000 000000
2015-08-04 07:35:46,0.00,0.44,0.00,24.04,27.75,30.28,4.77,26.05,1013.78,2037.99,3218.00,3146.99,3413.35,350.07,345.58,31.34,0000 0000 0000 0000 000000
2015-08-04 07:40:48,0.00,0.44,0.00,24.00,27.75,30.28,4.73,25.98,1013.76,2037.99,3217.99,3146.99,3413.22,349.73,345.16,31.37,0000 0000 0000 0000 000000
2015-08-04 07:45:49,0.00,0.44,0.00,24.02,27.73,30.24,4.71,25.96,1013.75,2037.99,3217.97,3146.99,3413.12,349.46,344.90,31.40,0000 0000 0000 0000 000000
2015-08-04 07:50:50,0.01,0.44,0.00,24.03,27.72,30.25,4.76,25.98,1013.73,2037.99,3217.71,3146.99,3413.02,349.98,345.32,31.43,0000 0000 0000 0000 000000
2015-08-04 07:55:51,-0.01,0.44,0.00,24.04,27.71,30.21,4.77,26.06,1013.71,2038.00,3217.76,3146.99,3413.03,350.36,345.71,31.46,0000 0000 0000 0000 000000
2015-08-04 08:00:53,0.01,0.44,0.00,24.05,27.70,30.16,4.70,26.05,1013.71,2038.00,3217.53,3147.00,3413.01,349.64,344.98,31.49,0000 0000 0000 0000 000000
2015-08-04 08:05:54,0.01,0.44,0.00,24.06,27.70,30.13,4.81,26.28,1013.72,2038.02,3217.10,3147.00,3413.00,350.13,345.62,31.52,0000 0000 0000 0000 000000
2015-08-04 08:10:55,0.00,0.44,0.00,24.08,27.68,30.11,4.72,26.04,1013.77,2038.00,3217.08,3147.00,3413.00,349.65,345.21,31.55,0000 0000 0000 0000 000000
2015-08-04 08:15:56,0.00,0.44,0.00,24.09,27.67,30.08,4.81,26.02,1013.86,2038.03,3217.02,3147.01,3413.00,350.29,345.66,31.58,0000 0000 0000 0000 000000
2015-08-04 08:20:57,0.00,0.44,0.00,24.10,27.67,30.05,4.80,25.99,1014.05,2038.02,3217.01,3147.00,3412.99,350.39,345.81,31.61,0000 0000 0000 0000 000000
2015-08-04 08:25:58,-0.00,0.44,0.00,24.11,27.67,30.02,4.72,26.07,1014.07,2038.03,3217.00,3147.00,3412.98,350.20,345.69,31.64,0000 0000 0000 0000 000000
2015-08-04 08:31:00,0.00,0.44,0.00,24.12,27.67,30.02,4.74,26.02,1014.11,2038.04,3217.00,3147.00,3412.97,349.94,345.42,31.67,0000 0000 0000 0000 000000
2015-08-04 08:36:01,0.01,0.44,0.00,24.14,27.66,30.02,4.69,25.98,1014.13,2038.08,3216.99,3147.00,3412.95,349.60,345.02,31.69,0000 0000 0000 0000 000000
2015-08-04 08:41:02,-0.00,0.44,0.00,24.15,27.66,30.02,4.76,25.99,1014.13,2038.05,3216.96,3147.00,3412.72,350.35,345.68,31.72,0000 0000 0000 0000 000000
2015-08-04 08:46:03,0.01,0.44,0.00,24.15,27.65,30.00,4.70,26.01,1014.16,2038.05,3216.90,3147.00,3412.38,349.90,345.41,31.75,0000 0000 0000 0000 000000
2015-08-04 08:51:05,0.02,0.44,0.00,24.15,27.65,30.02,4.74,26.11,1014.17,2038.05,3216.62,3147.00,3412.21,349.98,345.59,31.78,0000 0000 0000 0000 000000
2015-08-04 08:56:06,0.01,0.44,0.00,24.15,27.65,30.02,4.75,26.02,1014.17,2038.09,3216.31,3147.00,3412.06,350.13,345.56,31.81,0000 0000 0000 0000 000000
2015-08-04 09:01:07,-0.00,0.44,0.00,24.16,27.66,30.01,4.72,26.17,1014.16,2038.03,3216.02,3146.99,3412.00,349.76,345.25,31.84,0000 0000 0000 0000 000000
2015-08-04 09:06:08,0.00,0.44,0.00,24.17,27.66,30.02,4.69,26.19,1014.17,2038.04,3216.00,3146.97,3412.00,350.23,345.71,31.87,0000 0000 0000 0000 000000
2015-08-04 09:11:10,0.00,0.44,0.00,24.17,27.67,30.02,4.74,26.04,1014.17,2038.04,3216.00,3146.97,3411.99,349.93,345.42,31.90,0000 0000 0000 0000 000000
2015-08-04 09:16:11,0.00,0.44,0.00,24.17,27.67,30.03,4.68,26.05,1014.17,2038.05,3216.00,3146.99,3411.99,349.82,345.35,31.93,0000 0000 0000 0000 000000
2015-08-04 09:21:12,-0.00,0.44,0.00,24.17,27.67,30.03,4.78,25.96,1014.17,2038.08,3215.99,3146.97,3411.98,350.81,346.26,31.96,0000 0000 0000 0000 000000
2015-08-04 09:26:13,-0.00,0.44,0.00,24.17,27.67,30.03,4.72,26.08,1014.18,2038.07,3215.97,3146.97,3411.98,350.00,345.49,31.99,0000 0000 0000 0000 000000
2015-08-04 09:31:14,0.02,0.44,0.00,24.17,27.67,30.03,4.67,25.98,1014.19,2038.12,3215.97,3146.98,3411.97,349.28,345.10,32.02,0000 0000 0000 0000 000000
2015-08-04 09:36:16,0.00,0.44,0.00,24.17,27.67,30.04,4.70,26.04,1014.19,2038.13,3215.79,3146.98,3411.75,349.71,344.97,32.05,0000 0000 0000 0000 000000
2015-08-04 09:41:17,0.02,0.44,0.00,24.17,27.67,30.04,4.67,26.01,1014.19,2038.04,3215.22,3146.93,3411.25,349.76,345.60,32.08,0000 0000 0000 0000 000000
2015-08-04 09:46:19,0.02,0.44,0.00,24.18,27.67,30.06,4.71,25.93,1014.20,2038.06,3215.03,3146.81,3411.03,349.99,345.48,32.11,0000 0000 0000 0000 000000
2015-08-04 09:51:20,0.00,0.44,0.00,24.17,27.68,30.04,4.76,25.96,1014.20,2038.06,3215.01,3146.88,3411.01,349.99,345.41,32.13,0000 0000 0000 0000 000000
2015-08-04 09:56:21,0.01,0.44,0.00,24.17,27.69,30.05,4.78,25.90,1014.19,2038.03,3215.00,3146.64,3411.00,350.35,345.67,32.16,0000 0000 0000 0000 000000
2015-08-04 10:01:23,0.01,0.44,0.00,24.17,27.70,30.06,4.73,26.04,1014.19,2038.04,3214.98,3146.41,3411.00,349.98,345.43,32.19,0000 0000 0000 0000 000000
2015-08-04 10:06:24,0.01,0.44,0.00,24.17,27.70,30.07,4.82,26.14,1014.19,2038.02,3214.93,3146.27,3410.98,350.34,345.92,32.22,0000 0000 0000 0000 000000
2015-08-04 10:11:25,0.01,0.44,0.00,24.17,27.70,30.07,4.71,25.85,1014.19,2038.01,3214.66,3146.12,3410.96,350.00,345.49,32.25,0000 0000 0000 0000 000000
2015-08-04 10:16:26,0.02,0.44,0.00,24.18,27.70,30.07,4.78,25.94,1014.19,2038.03,3214.33,3146.10,3410.85,350.15,345.85,32.28,0000 0000 0000 0000 000000
2015-08-04 10:21:27,0.02,0.44,0.00,24.19,27.70,30.07,4.71,26.01,1014.19,2038.02,3214.05,3146.03,3410.28,350.14,345.44,32.31,0000 0000 0000 0000 000000
2015-08-04 10:26:29,0.01,0.44,0.00,24.19,27.70,30.07,4.60,25.95,1014.18,2038.03,3214.01,3146.02,3410.04,349.22,344.64,32.34,0000 0000 0000 0000 000000
2015-08-04 10:31:30,-0.00,0.44,0.00,24.19,27.70,30.08,4.77,26.02,1014.18,2038.00,3214.00,3146.00,3410.00,350.20,345.64,32.37,0000 0000 0000 0000 000000
2015-08-04 10:36:31,0.00,0.44,0.00,24.20,27.71,30.08,4.74,26.00,1014.18,2038.00,3213.97,3146.00,3410.00,349.78,345.22,32.40,0000 0000 0000 0000 000000
2015-08-04 10:41:32,0.00,0.44,0.00,24.19,27.72,30.08,4.79,26.00,1014.18,2038.00,3213.89,3146.00,3409.99,349.84,345.33,32.43,0000 0000 0000 0000 000000
2015-08-04 10:46:34,0.01,0.44,0.00,24.18,27.72,30.09,4.74,25.96,1014.18,2038.01,3213.73,3146.00,3409.98,350.31,345.78,32.46,0000 0000 0000 0000 000000
2015-08-04 10:51:35,0.01,0.44,0.00,24.18,27.72,30.09,4.72,25.94,1014.18,2038.02,3213.44,3146.00,3409.98,349.85,345.30,32.49,0000 0000 0000 0000 000000
2015-08-04 10:56:36,0.00,0.44,0.00,24.17,27.72,30.09,4.73,25.92,1014.18,2038.02,3213.08,3146.00,3409.88,349.68,345.24,32.52,0000 0000 0000 0000 000000
2015-08-04 11:01:37,0.02,0.45,0.00,24.17,27.72,30.09,4.74,26.08,1014.18,2038.00,3213.01,3146.00,3409.35,350.18,345.47,32.54,0000 0000 0000 0000 000000
2015-08-04 11:06:39,0.00,0.45,0.00,24.18,27.72,30.12,4.66,26.07,1014.18,2038.00,3213.00,3145.98,3409.04,349.31,344.80,32.57,0000 0000 0000 0000 000000
2015-08-04 11:11:40,0.00,0.45,0.00,24.19,27.72,30.10,4.75,25.86,1014.18,2038.00,3212.99,3145.98,3409.01,350.27,345.72,32.60,0000 0000 0000 0000 000000
2015-08-04 11:16:41,0.00,0.45,0.00,24.19,27.72,30.10,4.75,25.92,1014.18,2038.01,3212.96,3145.99,3409.00,350.62,346.12,32.63,0000 0000 0000 0000 000000
2015-08-04 11:21:42,0.00,0.45,0.00,24.19,27.72,30.09,4.67,25.97,1014.18,2038.00,3212.88,3145.97,3409.00,349.63,345.08,32.66,0000 0000 0000 0000 000000
2015-08-04 11:26:44,0.01,0.45,0.00,24.18,27.73,30.10,4.71,25.96,1014.18,2038.00,3212.56,3145.99,3409.00,350.20,345.71,32.69,0000 0000 0000 0000 000000
2015-08-04 11:31:45,0.01,0.45,0.00,24.17,27.73,30.11,4.79,25.98,1014.18,2038.00,3212.09,3145.96,3408.98,349.90,345.32,32.72,0000 0000 0000 0000 000000
2015-08-04 11:36:46,0.00,0.45,0.00,24.17,27.74,30.10,4.75,25.98,1014.18,2038.01,3212.00,3145.92,3408.98,349.79,345.51,32.75,0000 0000 0000 0000 000000
2015-08-04 11:41:47,0.01,0.45,0.00,24.17,27.74,30.10,4.70,25.89,1014.18,2038.01,3212.00,3145.75,3408.81,349.58,344.97,32.78,0000 0000 0000 0000 000000
2015-08-04 11:46:49,0.01,0.45,0.00,24.17,27.74,30.10,4.73,26.03,1014.17,2038.01,3211.99,3145.51,3408.35,349.62,345.11,32.81,0000 0000 0000 0000 000000
2015-08-04 11:51:50,0.02,0.45,0.00,24.17,27.74,30.10,4.69,25.93,1014.15,2038.01,3211.89,3145.41,3408.16,349.73,345.13,32.84,0000 0000 0000 0000 000000
2015-08-04 11:56:51,0.01,0.45,0.00,24.17,27.74,30.12,4.73,25.91,1014.04,2038.01,3211.75,3145.28,3408.03,350.29,345.72,32.87,0000 0000 0000 0000 000000
2015-08-04 12:01:52,0.02,0.45,0.00,24.17,27.74,30.10,4.73,25.97,1013.87,2038.00,3211.29,3145.15,3408.00,349.23,344.69,32.90,0000 0000 0000 0000 000000
2015-08-04 12:06:54,0.00,0.45,0.00,24.17,27.75,30.11,4.74,26.06,1013.82,2038.00,3211.03,3145.08,3408.00,350.06,345.34,32.93,0000 0000 0000 0000 000000
2015-08-04 12:11:55,0.00,0.45,0.00,24.17,27.75,30.12,4.77,25.95,1013.86,2038.01,3211.00,3145.07,3408.00,350.12,345.50,32.95,0000 0000 0000 0000 000000
2015-08-04 12:16:56,0.00,0.45,0.00,24.15,27.75,30.11,4.76,25.81,1013.80,2038.01,3210.99,3145.04,3407.96,350.49,345.84,32.98,0000 0000 0000 0000 000000
2015-08-04 12:21:57,0.00,0.45,0.00,24.15,27.75,30.12,4.71,25.96,1013.87,2038.01,3210.99,3145.01,3407.92,349.39,344.86,33.01,0000 0000 0000 0000 000000
2015-08-04 12:26:58,0.00,0.45,0.00,24.17,27.75,30.12,4.72,25.98,1013.77,2038.00,3210.99,3145.03,3407.79,349.73,345.08,33.04,0000 0000 0000 0000 000000
2015-08-04 12:31:59,0.01,0.45,0.00,24.17,27.75,30.11,4.80,25.97,1013.70,2038.02,3210.94,3145.03,3407.42,350.45,345.83,33.07,0000 0000 0000 0000 000000
2015-08-04 12:37:01,0.01,0.45,0.00,24.17,27.75,30.12,4.70,25.93,1013.70,2038.00,3210.69,3145.04,3407.13,350.37,345.67,33.10,0000 0000 0000 0000 000000
2015-08-04 12:42:02,0.01,0.45,0.00,24.17,27.75,30.12,4.69,26.01,1013.70,2038.01,3210.32,3145.01,3407.04,349.98,345.31,33.13,0000 0000 0000 0000 000000
2015-08-04 12:47:03,0.00,0.45,0.00,24.16,27.75,30.11,4.71,25.98,1013.70,2038.01,3210.07,3145.01,3407.00,349.66,345.00,33.16,0000 0000 0000 0000 000000
2015-08-04 12:52:04,-0.00,0.45,0.00,24.15,27.75,30.12,4.74,26.08,1013.70,2038.00,3210.01,3145.01,3407.00,349.72,345.13,33.19,0000 0000 0000 0000 000000
2015-08-04 12:57:05,0.00,0.45,0.00,24.15,27.75,30.12,4.78,25.96,1013.69,2038.01,3210.00,3145.00,3407.00,350.71,345.98,33.22,0000 0000 0000 0000 000000
2015-08-04 13:02:06,0.00,0.45,0.00,24.13,27.75,30.12,4.77,26.17,1013.69,2038.02,3209.98,3145.00,3406.95,349.89,345.33,33.25,0000 0000 0000 0000 000000